This is the latest recevied weather packets stored in our database for station/object DO8TBO-15. If no packets are shown the sender has not sent any weather packets the latest 10 day(s).
| Time | Temp. | Humidity | Pressure | Rain* | Wind** | Luminosity | Snow |
|---|---|---|---|---|---|---|---|
| 1777681532 | 5.56° C | - | 1024.5 hPa | 0 mm | - | - | - |
| 1777680929 | 6.11° C | - | 1024.4 hPa | 0 mm | - | - | - |
| 1777680325 | 6.11° C | - | 1024.6 hPa | 0 mm | - | - | - |
| 1777679117 | 6.67° C | - | 1024.7 hPa | 0 mm | - | - | - |
| 1777678574 | 6.67° C | - | 1024.7 hPa | 0 mm | - | - | - |
| 1777677970 | 6.67° C | - | 1024.8 hPa | 0 mm | - | - | - |
| 1777677367 | 6.67° C | - | 1024.7 hPa | 0 mm | - | - | - |
| 1777676763 | 6.67° C | - | 1024.8 hPa | 0 mm | - | - | - |
| 1777676160 | 6.67° C | - | 1024.8 hPa | 0 mm | - | - | - |
| 1777675555 | 7.22° C | - | 1024.8 hPa | 0 mm | - | - | - |
| 1777674952 | 7.78° C | - | 1024.9 hPa | 0 mm | - | - | - |
| 1777674365 | 7.78° C | - | 1024.9 hPa | 0 mm | - | - | - |
| 1777673749 | 8.33° C | - | 1024.9 hPa | 0 mm | - | - | - |
| 1777673140 | 8.89° C | - | 1024.9 hPa | 0 mm | - | - | - |
| 1777671934 | 8.89° C | - | 1024.8 hPa | 0 mm | - | - | - |
| 1777671330 | 8.89° C | - | 1024.7 hPa | 0 mm | - | - | - |
| 1777670733 | 9.44° C | - | 1024.7 hPa | 0 mm | - | - | - |
| 1777670122 | 9.44° C | - | 1024.7 hPa | 0 mm | - | - | - |
| 1777669518 | 10° C | - | 1024.8 hPa | 0 mm | - | - | - |
| 1777668974 | 10.56° C | - | 1024.8 hPa | 0 mm | - | - | - |
| 1777668374 | 11.11° C | - | 1024.7 hPa | 0 mm | - | - | - |
| 1777667767 | 11.11° C | - | 1024.7 hPa | 0 mm | - | - | - |
| 1777667163 | 11.67° C | - | 1024.7 hPa | 0 mm | - | - | - |
| 1777666560 | 11.67° C | - | 1024.6 hPa | 0 mm | - | - | - |
| 1777665955 | 12.78° C | - | 1024.6 hPa | 0 mm | - | - | - |
* Rain latest hour (hover to see other rain measurements)
** Current wind speed in m/s (hover to see current wind gust speed)